This is the latest recevied weather packets stored in our database for station/object OM2RC-6. If no packets are shown the sender has not sent any weather packets the latest 10 day(s).
| Time | Temp. | Humidity | Pressure | Rain* | Wind** | Luminosity | Snow |
|---|---|---|---|---|---|---|---|
| 1778064141 | 21.67° C | 83% | 1009.7 hPa | - | - | - | - |
| 1778063839 | 21.67° C | 83% | 1009.7 hPa | - | - | - | - |
| 1778063537 | 21.67° C | 82% | 1009.8 hPa | - | - | - | - |
| 1778063236 | 21.67° C | 82% | 1009.7 hPa | - | - | - | - |
| 1778062934 | 21.67° C | 80% | 1009.8 hPa | - | - | - | - |
| 1778062633 | 21.11° C | 83% | 1009.8 hPa | - | - | - | - |
| 1778062332 | 21.11° C | 84% | 1009.9 hPa | - | - | - | - |
| 1778062031 | 21.67° C | 83% | 1010 hPa | - | - | - | - |
| 1778061428 | 21.67° C | 82% | 1010.1 hPa | - | - | - | - |
| 1778061126 | 21.11° C | 85% | 1010.3 hPa | - | - | - | - |
| 1778060825 | 21.67° C | 84% | 1010.3 hPa | - | - | - | - |
| 1778060523 | 21.11° C | 87% | 1010.3 hPa | - | - | - | - |
| 1778060222 | 21.11° C | 86% | 1010.4 hPa | - | - | - | - |
| 1778059921 | 21.67° C | 84% | 1010.3 hPa | - | - | - | - |
| 1778059619 | 21.11° C | 87% | 1010.4 hPa | - | - | - | - |
| 1778059314 | 21.11° C | 87% | 1010.4 hPa | - | - | - | - |
| 1778059012 | 21.67° C | 83% | 1010.3 hPa | - | - | - | - |
| 1778058709 | 21.11° C | 86% | 1010.3 hPa | - | - | - | - |
| 1778058408 | 22.22° C | 84% | 1010.2 hPa | - | - | - | - |
| 1778057806 | 21.11° C | 88% | 1010.2 hPa | - | - | - | - |
| 1778057504 | 21.67° C | 84% | 1010.2 hPa | - | - | - | - |
| 1778057204 | 21.11° C | 88% | 1010.3 hPa | - | - | - | - |
| 1778056602 | 22.22° C | 84% | 1010.3 hPa | - | - | - | - |
| 1778056300 | 20.56° C | 91% | 1010.4 hPa | - | - | - | - |
| 1778055998 | 20° C | 91% | 1010.4 hPa | - | - | - | - |
* Rain since midnight (hover to see other rain measurements)
** Current wind speed in m/s (hover to see current wind gust speed)